Regional Weather Roundup
Issued by NWS Sterling, VA

Home | Current Version | Previous Version | Text Only | Print | Product List | Glossary Off
Versions: 1 2 3 4 5 6 7 8 9 10 11 12 13 14 15 16 17 18 19 20 21 22 23 24 25 26 27 28 29 30 31 32 33 34 35 36 37 38 39 40 41 42 43 44 45 46 47 48 49 50

000
ASUS41 KLWX 132210
RWRLWX

REGIONAL WEATHER ROUNDUP
NATIONAL WEATHER SERVICE BALTIMORE MD/WASHINGTON DC
500 PM EST SAT FEB 13 2016

Note: "FAIR" indicates few or no clouds below 12,000 feet
with no significant weather and/or obstructions to visibility.
 TC=TEMPERATURE CELSIUS

 * =Non NWS site. Station does not report precipitation (e.g. rain,
    snow, etc.), thunder, or fog.

DCZ001-MDZ009-015-VAZ040>042-051-053>054-132300-
WASHINGTON METRO

CITY           SKY/WX    TMP DP  RH WIND       PRES   REMARKS
WASHINGTON NAT FAIR      20  -7  30 NW22G32   30.34R WCI   3
DULLES         MOCLDY    18  -8  31 NW22G30   30.34R WCI   1
ANDREWS AFB    PTCLDY    19  -5  34 NW16G28   30.30R WCI   5
FT BELVOIR     FAIR      21  -8  27 NW13G28   30.35R WCI   9
QUANTICO       FAIR      23  -7  26 N18G26    30.37R WCI   9
LEESBURG*      FAIR      19   0  42 NW14G29   30.35R WCI   6
MANASSAS*      PTCLDY    19  -2  38 NW23G31   30.35R WCI   2
GAITHERSBURG*  MOCLDY    16  -8  35 NW12G20   30.34R WCI   3

$$

MDZ006>007-011-014-132300-
BALTIMORE METRO

CITY           SKY/WX    TMP DP  RH WIND       PRES   REMARKS
BWI AIRPORT    MOCLDY    17  -6  35 NW18G32   30.31R WCI   1
MD SCIENCE CTR   N/A     18  -2  41 MISG      30.32R
MARTIN STATE   MOCLDY    19   1  45 W17G28    30.33R WCI   4
ANNAPOLIS      CLOUDY    21   1  41 NW14      30.32R WCI   8
FORT MEADE*    MOCLDY    19  -4  35 W12G29    30.34R WCI   7

$$

MDZ012-015-019>023-132300-
MARYLAND EASTERN SHORE

CITY           SKY/WX    TMP DP  RH WIND       PRES   REMARKS
OCEAN CITY     MOCLDY    21  -3  35 NW17G32   30.26R WCI   7
SALISBURY      PTCLDY    21  -3  35 NW21G33   30.27R WCI   5
BAY BRIDGE AP*   N/A     21  -2  35 NW21G28   30.31R WCI   6

$$

MDZ017>025-132300-
SOUTHERN MARYLAND

CITY           SKY/WX    TMP DP  RH WIND       PRES   REMARKS
PATUXENT RIVER PTCLDY    22  -6  29 NW16G25   30.31R WCI   8
ST INIGOES     CLEAR     23  -3  32 NW15G26   30.31R WCI  10
LEONARDTOWN*   NOT AVBL

$$

MDZ003>005-132300-
NORTH CENTRAL MARYLAND

CITY           SKY/WX    TMP DP  RH WIND       PRES   REMARKS
FREDERICK*     CLOUDY    18   1  49 NW15G23   30.37R WCI   3
HAGERSTOWN APT CLOUDY    15  -2  46 NW14      30.30R WCI   0
WESTMINSTER*   MOCLDY    14   7  73 NW14G28   30.25R HAZE    WCI  -1

$$

MDZ501>502-132300-
WESTERN MARYLAND

CITY           SKY/WX    TMP DP  RH WIND       PRES   REMARKS
OAKLAND*       CLOUDY     1  -8  66 NW13G20   30.12R HAZE    WCI -16
CUMBERLAND*    NOT AVBL

$$

VAZ025>031-132300-
SHENANDOAH VALLEY

CITY           SKY/WX    TMP DP  RH WIND       PRES   REMARKS
WINCHESTER*    CLOUDY    19  -6  32 W21G29    30.32R WCI   3
FRONT ROYAL*   FAIR      18  -6  35 NW8       30.32R WCI   7
LURAY*         FAIR      18  -6  35 NW12G20   30.32R WCI   5
NEW MARKET*    FAIR      17  -6  35 NW6       30.31R
STAUNTON*      FAIR      24  -8  24 NW15      30.30R WCI  11
WAYNESBORO*    FAIR      19 -15  21 NW13G21   30.25R WCI   6

$$

WVZ021-048>050-054>055-132300-
EASTERN WEST VIRGINIA PANHANDLE

CITY           SKY/WX    TMP DP  RH WIND       PRES   REMARKS
MARTINSBURG    CLOUDY    15  -7  37 NW17G28   30.33R WCI  -1
PETERSBURG*    CLOUDY    15  -4  42 CALM      30.36R

$$

VAZ036>039-050-132300-
CENTRAL FOOTHILLS

CITY           SKY/WX    TMP DP  RH WIND       PRES   REMARKS
CHARLOTTESVILL FAIR      23  -8  25 NW10G18   30.31R WCI  12
CULPEPER*      FAIR      20  -8  29 NW12G18   30.36R WCI   8
ORANGE*        FAIR      23  -6  28 NW12G17   30.35R WCI  12
GORDONSVILLE*  FAIR      23  -8  25 NW3G20    30.33R
WARRENTON*     FAIR      22  -1  36 NW16      30.34R WCI   8

$$

VAZ055>057-132300-
NORTH AND CENTRAL PIEDMONT

CITY           SKY/WX    TMP DP  RH WIND       PRES   REMARKS
FREDERICKSBRG* FAIR      23  -4  30 W17G26    30.35R WCI   9
STAFFORD*      FAIR      22  -8  26 NW17G23   30.39R WCI   7

$$

NCZ024-NYZ072-PAZ021-071-VAZ022-071-132300-
OTHER REGIONAL OBSERVATIONS

CITY           SKY/WX    TMP DP  RH WIND       PRES   REMARKS
NEW YORK CITY  CLEAR     12 -17  26 NW17G33   30.20R WCI  -5
PHILADELPHIA   MOCLDY    17 -12  27 NW18G30   30.27R WCI   1
PITTSBURGH     LGT SNOW   9   3  77 NW20      30.35R WCI -10
ROANOKE        FAIR      21  -5  31 NW14G29   30.34R WCI   8
RICHMOND       FAIR      27  -7  22 NW20G26   30.30R WCI  13
RALEIGH        PTCLDY    33  -2  22 NW8       30.31R WCI  26

$$

ANZ530>537-132300-
MARINE OBSERVATIONS

STATION/POSITION TIME  TEMP    WIND        PRES
                       AIR SEA DIR/SP/G
                 (UTC) (F)     (DEG/KT/KT) (MB)
THOMAS PT LIGHT  2200          320/ 22       N/A
BALT KEY BRIDGE  2100   19     300/ 27/ 32 1025.0R
COVE POINT       2100   20     340/ 19/ 28 1026.2R
LEWISETTA        2100   24 36  340/ 18/ 22 1025.2R
SOLOMONS ISLAND  2100   23 38  320/ 11/ 19   N/A
PINEY POINT      2100          340/ 25/ 31   N/A

$$




USA.gov is the U.S. government's official web portal to all federal, state and local government web resources and services.